EZY1 EGPH-EGKK

Flight info

Callsign EZY1
Flight time N/A
Altitude 33000
Route GOSAM P600 FENIK L612 NAVSO DCT KEPAD L151 DISIT
Aircraft A20N/M-SDE2E3FGHIRWXY/LB1

Departure

Time 2026-04-24 21:42
Airport Edinburgh Airport (EGPH)

Arrival

Time N/A
Airport London Gatwick Airport (EGKK)
Time Latitude Longitude Altitude Speed Heading
2026-04-24 21:28 55.94793 -3.36608 116 ft 0 kts 117°
2026-04-24 21:33 55.94794 -3.36611 116 ft 2 kts 117°
2026-04-24 21:33 55.94802 -3.36638 116 ft 2 kts 117°
2026-04-24 21:33 55.94810 -3.36664 115 ft 2 kts 117°
2026-04-24 21:34 55.94816 -3.36687 116 ft 0 kts 112°
2026-04-24 21:34 55.94821 -3.36706 118 ft 2 kts 102°
2026-04-24 21:34 55.94821 -3.36733 115 ft 2 kts 47°
2026-04-24 21:34 55.94819 -3.36738 118 ft 0 kts 33°
2026-04-24 21:35 55.94824 -3.36741 118 ft 1 kts 344°
2026-04-24 21:35 55.94876 -3.36784 118 ft 14 kts 336°
2026-04-24 21:35 55.94946 -3.36809 119 ft 6 kts 19°
2026-04-24 21:35 55.94963 -3.36777 118 ft 8 kts 51°
2026-04-24 21:36 55.95013 -3.36633 116 ft 20 kts 58°
2026-04-24 21:36 55.95106 -3.36358 119 ft 31 kts 59°
2026-04-24 21:36 55.95235 -3.35974 115 ft 40 kts 59°
2026-04-24 21:36 55.95380 -3.35552 116 ft 23 kts 59°
2026-04-24 21:37 55.95448 -3.35392 118 ft 1 kts
2026-04-24 21:37 55.95464 -3.35401 118 ft 5 kts 341°
2026-04-24 21:37 55.95476 -3.35412 117 ft 0 kts 329°
2026-04-24 21:37 55.95483 -3.35421 119 ft 4 kts 321°
2026-04-24 21:38 55.95490 -3.35430 116 ft 0 kts 327°
2026-04-24 21:40 55.95513 -3.35454 117 ft 10 kts 331°
2026-04-24 21:40 55.95578 -3.35560 116 ft 9 kts 276°
2026-04-24 21:41 55.95547 -3.35641 115 ft 10 kts 235°
2026-04-24 21:41 55.95486 -3.35805 114 ft 21 kts 242°
2026-04-24 21:41 55.95310 -3.36337 114 ft 95 kts 239°
2026-04-24 21:41 55.94793 -3.37856 128 ft 186 kts 237°
2026-04-24 21:42 55.94065 -3.39964 829 ft 200 kts 238°
2026-04-24 21:42 55.93381 -3.42095 1952 ft 195 kts 242°
2026-04-24 21:42 55.92789 -3.44224 3001 ft 189 kts 246°
2026-04-24 21:42 55.92214 -3.46358 3826 ft 198 kts 239°
2026-04-24 21:43 55.91391 -3.48508 4373 ft 222 kts 235°
2026-04-24 21:43 55.90644 -3.50606 4799 ft 250 kts 248°